Terug naar catalogus

METEOR 2-17 DEB

ActiefPO
NORAD 38286·DEBRIS·🇷🇺 Russia

Gelanceerd Jan 30, 1988 vanaf Plesetsk Cosmodrome

Loading…

Volgende Passages (komende 24 uur)

TLE

VersSource: Space-Track

Epoch: Sep 13, 2026, 12:46 UTC

1 38286U 88005AP  26256.53206692  .00000483  00000-0  29521-3 0  9999
2 38286  82.5396 185.7134 0047832  11.5331 348.6923 14.03541702754984

Volg METEOR 2-17 DEB in realtime met AllMySat

Download on the App Store